Location: Mount Cross
(36.6390°N, 79.4878°W)
Time: 00:57:45
(UTC+00:00)

SR - Pass Details

Date: 30 March 2023
Orbit: 580 x 867 km, 66.7° (Epoch: 08 June)

Event Time Altitude Azimuth Distance (km) Brightness Sun altitude
Rises 14:10:08 0° 349° (N) 2,821 ? 35.1°
Reaches altitude 10° 14:13:02 10° 10° (N) 1,940 ? 35.6°
Maximum altitude 14:15:54 17° 52° (NE) 1,562 ? 36.1°
Drops below altitude 10° 14:18:51 10° 93° (E) 2,010 ? 36.6°
Sets 14:21:55 0° 114° (ESE) 2,969 ? 37.2°
